Miscellaneous Local Product
Issued by NWS Hastings, NE

Home | Current Version | Previous Version | Text Only | Print | Product List | Glossary Off
Versions: 1 2 3 4 5 6 7 8 9 10 11 12 13 14 15 16 17 18 19 20 21 22 23 24 25 26 27 28 29 30 31 32 33 34 35 36 37 38 39 40 41 42 43 44 45 46 47 48 49 50

000
AXUS43 KGID 250702
MISGRI

GID CWA HOURLY WEATHER ROUNDUP
NATIONAL WEATHER SERVICE HASTINGS NE
100 AM CST SUN JAN 25 2015

NOTE: "FAIR" INDICATES FEW OR NO CLOUDS BELOW 12,000 FEET WITH NO
SIGNIFICANT WEATHER AND/OR OBSTRUCTIONS TO VISIBILITY.

...SOUTH CENTRAL NEBRASKA...

CITY           SKY/WX    TMP DP  RH WIND       PRES   REMARKS
GRAND ISLAND   CLOUDY    42  36  79 NW28G33   29.76R
HASTINGS       MOCLDY    46  31  55 NW31G44   29.75S
KEARNEY        CLOUDY    45  30  57 NW28G37   29.79F
ORD            CLOUDY    41  34  76 NW29G43   29.76R
YORK           MOCLDY    41  37  87 NW29G38   29.69S
AURORA         MOCLDY    42  35  75 NW29      29.73R
LEXINGTON      PTCLDY    44  31  60 NW29G44   29.85S
HOLDREGE       CLOUDY    44  30  58 NW24G33   29.83S
HEBRON         MOCLDY    45  34  64 NW12G18   29.73S

...NEBRASKA PANHANDLE...

CITY           SKY/WX    TMP DP  RH WIND       PRES   REMARKS
CHADRON        CLEAR     36  28  73 NW22G31   30.03R WCI  25
ALLIANCE       CLEAR     36  25  64 NW23      30.00S WCI  24
SCOTTSBLUFF    PTCLDY    38  28  67 W25G32    30.06F WCI  27
SIDNEY         CLEAR     36  26  67 NW20      30.06F WCI  25

...WESTERN AND NORTH CENTRAL NEBRASKA...

CITY           SKY/WX    TMP DP  RH WIND       PRES   REMARKS
VALENTINE      MOCLDY    40  30  67 NW30G49   29.87R WCI  28
AINSWORTH      CLOUDY    38  34  86 NW29      29.86R WCI  26
ONEILL         CLOUDY    38  35  87 NW31G37   29.77R WCI  25
BROKEN BOW     CLOUDY    44  31  60 NW36G49   29.81R
IMPERIAL       CLEAR     39  27  62 NW21G28   29.99R WCI  29
NORTH PLATTE   CLEAR     35  29  78 NW10      29.91R WCI  27
MCCOOK         CLEAR     42  30  62 NW18G30   29.93S

...EASTERN NEBRASKA...

CITY           SKY/WX    TMP DP  RH WIND       PRES   REMARKS
NORFOLK        CLOUDY    38  34  85 NW28G44   29.67R WCI  26
SO SIOUX CITY  LGT RAIN  40  37  89 NW21G28   29.60R WCI  30
TEKAMAH        CLOUDY    42  37  82 NW18      29.61S
COLUMBUS       CLOUDY    41  32  70 NW30G40   29.68S
ALBION         CLOUDY    39  33  78 NW24G30   29.71R WCI  29
OMAHA EPPLEY   CLOUDY    43  38  82 NW22G28   29.61S
OFFUTT AFB     MOCLDY    45  37  76 NW15G24   29.61S
MILLARD        CLOUDY    45  37  75 NW16G22   29.62S
LINCOLN        LGT RAIN  45  38  76 NW18      29.67S
NEBRASKA CITY  MOCLDY    44  35  70 NW17G23   29.62F
BEATRICE       MOCLDY    46  38  76 NW18G25   29.67F
FALLS CITY     CLOUDY    44  39  82 W14       29.63F

...NORTHERN KANSAS...

CITY           SKY/WX    TMP DP  RH WIND       PRES   REMARKS
GOODLAND       CLOUDY    41  29  62 NW26G35   30.03S
HILL CITY      PTCLDY    46  32  58 NW23G33   29.92R
NORTON         PTSUNNY   43  28  56 W22G31    29.89
PHILLIPSBURG   MOCLDY    48  34  57 W22G28    29.87S
SMITH CENTER   MOCLDY    45  30  57 NW24G35   29.83S
BELOIT         CLEAR     48  34  57 W18G29    29.80S
HAYS           CLOUDY    46  30  53 NW21G33   29.89S
RUSSELL        CLOUDY    47  35  63 NW20      29.86R
CONCORDIA      PTCLDY    47  35  63 W17G26    29.76S
SALINA         CLOUDY    48  37  65 NW17      29.80S
TOPEKA         CLOUDY    48  39  71 W10       29.69F



USA.gov is the U.S. government's official web portal to all federal, state and local government web resources and services.